Theta_e
327 327 324 324 322 320 317 316 315 309 309 315 314 323 320 320 321 325 329 327 323 320 318 319 319 320 321 322 323 323 325 326 327 329 331 333 335 337
325 324 324 323 323 322 320 318 316 315 312 316 317 319 322 320 322 325 326 323 321 319 319 319 318 317 318 319 320 321 322 323 323 324 326 328 329 332
324 324 324 324 324 324 323 322 320 316 313 320 319 324 322 323 324 324 324 325 324 318 319 318 316 315 316 317 317 319 320 320 321 321 323 324 326 327
318 319 319 320 318 319 320 318 318 320 318 315 321 319 319 324 323 323 321 321 323 321 318 317 315 314 314 315 315 315 314 315 315 316 318 318 320 322
312 311 310 312 311 311 313 314 316 318 319 315 315 319 319 320 321 321 320 322 321 322 317 316 315 315 315 314 313 312 311 309 308 310 311 314 317 318
306 307 308 308 309 310 310 311 311 310 312 311 311 312 315 319 319 318 319 321 319 321 319 317 316 316 315 314 314 313 310 306 306 306 306 307 308 311
302 302 304 306 308 309 307 307 308 307 307 307 308 309 311 312 313 315 315 316 319 318 319 320 322 322 321 316 318 315 311 307 305 305 306 305 304 306
297 298 300 301 302 303 305 306 307 306 305 306 306 306 308 309 312 313 313 311 308 318 316 316 320 320 320 320 313 309 308 305 306 307 307 305 305 305
295 295 296 298 300 300 300 301 302 303 304 304 302 303 304 307 308 308 308 307 306 310 311 310 317 314 319 320 307 306 304 304 305 305 304 304 303 302
296 296 296 297 297 298 298 298 299 300 302 303 305 305 307 308 309 308 307 308 309 310 312 307 313 312 318 317 304 305 305 303 302 303 303 303 301 301
297 298 297 297 297 296 297 296 297 298 300 300 300 299 297 297 300 302 301 301 300 305 310 311 312 313 316 318 318 306 303 301 301 302 302 303 303 302
295 297 298 297 295 295 296 296 295 296 298 299 301 301 300 302 299 302 302 298 299 299 307 306 308 311 309 316 315 314 314 304 302 300 303 302 301 310
295 296 297 295 294 293 293 296 296 298 298 298 299 300 301 302 302 304 304 302 300 299 306 309 308 312 310 310 313 312 312 314 312 307 301 301 304 307
294 296 296 294 293 293 293 293 292 294 296 295 296 296 298 299 301 303 305 307 306 305 308 310 308 310 309 308 309 312 311 312 309 308 306 300 299 299
296 296 294 294 293 293 293 292 292 294 294 293 294 295 297 299 301 302 304 307 308 309 310 310 310 311 312 309 309 309 309 309 308 307 307 307 307 307
297 297 296 295 294 294 294 294 294 295 294 294 295 296 298 298 298 301 302 303 303 303 308 310 311 312 310 310 311 311 311 308 307 306 303 302 302 303
294 294 294 295 295 296 296 296 295 295 293 294 294 296 296 297 297 300 300 302 301 302 307 310 312 310 306 310 310 314 310 306 305 302 302 299 298 299
292 293 294 296 296 297 297 298 299 299 298 297 297 297 297 297 298 299 300 300 301 302 303 307 305 305 306 304 304 309 307 303 302 302 302 300 298 297
293 296 296 297 298 300 300 301 303 305 305 301 299 299 299 300 298 299 299 302 302 303 305 308 307 307 304 304 305 298 305 302 300 297 298 297 296 294
297 297 298 301 302 302 303 306 310 308 308 307 302 302 302 302 300 301 302 302 304 305 305 309 308 310 308 305 301 299 292 302 300 295 292 293 293 294
299 298 298 298 298 299 300 302 306 308 306 306 306 305 304 303 303 304 304 297 299 307 305 306 310 297 306 305 301 295 294 295 299 297 294 294 295 296
297 296 295 295 295 295 296 298 301 307 310 309 307 307 306 306 306 306 305 304 307 308 307 305 305 305 306 303 296 292 292 294 295 295 295 297 300 298
294 295 294 293 293 293 293 293 295 298 303 310 308 309 309 308 308 307 307 308 308 306 304 302 302 301 299 298 293 293 293 294 294 293 293 295 295 296
Wind_Speed
5 4 4 4 4 5 3 3 4 4 4 4 4 5 4 4 7 7 7 8 10 9 9 9 10 9 8 9 10 9 8 11 13 13 14 15 15 16
2 3 3 3 4 4 4 4 3 5 6 5 6 6 4 5 8 7 8 10 10 11 11 11 11 11 8 9 9 9 9 9 12 13 13 14 14 13
3 4 3 1 3 3 3 3 4 4 6 8 5 4 5 7 8 6 8 8 8 11 12 11 12 10 9 8 9 8 7 9 10 10 11 12 12 15
5 4 4 0 1 2 4 4 5 6 4 16 9 6 8 7 9 9 7 8 8 10 12 10 10 10 9 10 9 8 8 9 7 9 9 11 15 17
5 5 4 3 4 4 4 5 3 5 7 8 8 5 5 4 8 7 8 8 7 11 12 13 12 11 11 10 9 9 9 7 9 11 13 12 13 17
5 5 6 6 6 5 5 6 6 6 6 7 8 8 7 7 7 8 9 6 7 6 8 10 9 10 11 12 12 9 9 9 9 11 12 14 14 14
7 7 8 8 13 10 7 7 8 7 7 8 9 8 8 7 8 6 8 7 7 5 7 6 6 6 7 11 10 10 10 6 12 11 15 14 15 14
11 11 10 15 14 16 16 17 12 10 10 9 10 10 10 8 8 8 8 8 10 5 4 9 6 7 7 6 10 8 5 10 11 11 12 13 14 13
11 11 10 9 13 11 12 14 15 16 17 14 15 13 13 12 10 11 12 11 12 10 8 11 8 9 8 6 7 7 6 13 7 9 12 12 12 12
10 11 11 11 10 11 10 10 12 12 12 10 12 12 13 11 9 9 10 10 10 9 8 12 9 10 6 6 9 10 12 3 6 8 10 9 10 8
11 11 10 10 12 13 11 12 11 11 11 16 17 16 15 14 12 8 10 9 9 7 7 9 8 8 6 6 5 9 4 2 3 6 6 7 7 4
11 11 14 14 15 15 13 11 11 11 12 12 11 12 13 12 13 10 9 10 10 7 10 9 10 5 6 3 5 4 3 4 4 5 6 1 4 2
8 9 8 12 13 15 14 10 12 12 13 10 10 8 9 11 10 9 10 10 10 10 7 3 5 7 7 1 1 2 3 2 1 2 5 4 4 2
10 9 10 13 14 15 14 19 19 15 9 9 9 9 9 10 10 10 11 11 9 11 8 5 5 6 5 3 3 2 2 2 1 1 2 4 9 9
8 13 18 20 21 17 19 20 16 10 10 10 12 11 10 9 10 9 9 8 9 10 9 9 7 5 3 3 3 3 3 2 2 2 1 2 2 1
12 10 13 17 21 20 17 14 10 11 11 11 11 10 7 8 9 8 7 5 6 8 10 11 9 7 3 2 2 5 4 3 3 2 3 2 3 3
11 7 8 8 10 9 10 9 9 9 10 11 10 9 8 7 7 6 7 7 8 6 3 3 4 4 5 1 2 4 3 2 2 3 2 2 3 4
4 7 10 9 11 11 11 11 8 11 10 9 9 8 7 7 6 5 5 7 7 7 3 1 4 4 2 5 12 3 2 3 2 3 2 2 1 4
5 9 9 10 11 11 11 10 10 9 9 8 9 8 6 5 6 6 6 6 7 6 4 4 4 3 4 4 2 18 3 2 4 3 3 3 3 3
8 9 10 10 11 11 10 10 10 10 10 5 6 6 6 6 6 6 6 6 6 5 4 5 4 7 5 5 4 3 13 4 3 3 3 3 5 8
11 12 11 11 11 11 11 11 12 10 10 10 7 6 6 6 5 5 5 5 6 6 8 8 7 5 6 7 5 2 5 13 6 3 4 3 3 3
11 12 12 11 12 12 12 12 11 10 9 8 7 6 4 3 3 4 3 1 1 1 1 3 5 7 3 2 4 5 4 4 12 18 14 5 1 2
12 12 11 11 12 12 12 12 12 11 11 8 6 6 5 4 4 3 2 2 2 3 6 5 4 4 4 5 6 4 7 5 3 5 8 15 13 14
Wind_Direction
254 242 238 267 208 213 195 180 192 226 238 251 232 246 228 235 242 250 249 242 241 253 261 262 262 265 262 275 283 282 268 270 273 263 261 266 264 263
286 244 234 255 259 249 236 233 217 209 255 209 230 238 235 241 244 239 254 255 248 241 249 255 251 252 254 257 268 271 277 279 276 273 269 266 266 262
341 337 322 280 253 252 236 235 227 181 243 286 258 268 272 266 272 245 243 246 259 255 257 248 245 240 249 249 249 253 261 267 267 278 282 278 270 272
294 279 274 29 340 312 251 233 208 255 233 256 255 247 243 258 260 270 263 250 244 255 263 255 248 255 257 243 239 250 257 263 281 281 272 277 281 274
347 332 306 286 243 235 220 272 257 244 234 256 273 255 239 266 275 267 258 265 250 253 257 264 253 251 256 243 229 244 251 266 286 289 288 271 263 274
314 312 310 299 287 285 274 269 263 257 253 258 262 264 260 240 244 257 268 254 268 257 249 255 268 263 253 239 223 237 257 271 287 286 284 284 272 261
292 289 282 273 277 271 267 262 259 261 259 262 265 261 254 243 238 253 259 273 266 260 268 260 259 266 266 240 239 218 225 276 282 289 289 284 268 265
290 288 279 282 276 267 262 262 254 255 252 250 254 250 247 251 250 252 268 271 273 236 254 267 251 250 259 243 222 237 259 272 268 293 291 283 274 269
289 287 286 279 279 278 276 276 269 261 256 260 259 252 257 251 254 255 255 259 262 265 262 265 263 270 267 262 210 216 256 264 330 296 283 282 279 270
283 285 281 283 278 278 281 274 268 264 257 254 250 253 253 258 253 252 258 262 262 261 253 263 261 257 254 251 186 200 232 312 306 298 285 286 280 260
293 280 276 281 281 273 275 277 273 271 273 261 256 253 255 258 255 267 261 266 273 258 222 247 251 250 247 257 231 199 188 98 324 316 333 303 263 155
294 288 274 267 267 271 271 270 267 267 267 270 261 256 253 257 252 239 254 244 248 273 244 246 249 235 259 255 232 200 183 141 93 30 24 308 193 128
284 285 277 267 276 275 262 267 270 285 277 269 266 260 251 255 253 241 231 230 239 239 244 215 251 231 233 240 216 172 179 203 126 82 63 42 23 131
281 280 279 272 269 267 276 270 265 264 259 253 254 252 249 250 245 237 238 229 225 230 250 228 247 222 192 169 193 157 171 171 107 112 108 96 70 60
271 272 277 277 274 271 266 262 262 253 247 244 245 245 241 247 249 244 249 227 211 230 240 241 243 250 208 159 154 168 165 157 138 131 110 62 54 75
282 282 277 275 269 267 275 268 247 239 232 232 237 240 240 236 238 235 231 221 233 244 241 231 224 224 150 179 212 158 167 167 142 113 100 57 38 42
299 290 292 294 294 290 276 263 252 240 229 228 230 232 227 220 221 216 219 218 228 232 237 177 179 110 74 116 183 158 145 124 124 121 103 89 26 8
299 305 303 302 297 297 293 297 273 260 242 223 221 217 219 203 205 191 196 205 215 226 212 124 137 130 126 82 33 123 108 119 115 116 115 107 64 8
300 314 307 307 305 305 303 301 297 286 266 210 206 200 194 189 177 185 189 190 204 212 183 169 173 163 148 169 105 33 123 118 118 85 49 61 100 13
331 323 330 336 344 342 338 336 338 352 354 356 165 166 163 157 173 182 177 183 189 180 173 170 187 200 197 168 129 58 9 118 115 106 107 68 78 109
359 4 356 350 347 345 344 345 344 8 18 27 65 109 126 148 165 171 174 180 186 184 186 197 211 146 106 110 104 69 23 43 65 125 134 126 131 146
357 2 357 356 357 355 351 350 350 358 22 33 52 70 86 104 133 138 129 135 102 76 134 111 135 135 115 88 107 112 101 67 68 65 51 41 140 160
359 358 359 1 360 359 358 353 352 355 1 24 33 47 54 74 72 86 95 98 116 112 105 96 87 50 69 95 115 113 121 113 56 63 45 37 64 80